Content
SEND FEEDBACK

Daily
Averages
Monthly
Summary
United Kingdom

LONDON - RICHMOND UPON THAMES, ENGLAND


Home > Europe > United Kingdom > England
Elevation: 39 feet     Latitude: 51 25N     Longitude: 000 23W

WEATHER
 
SELECT A DAY
Number of Records: 344,109;   Date Range: 7/1/96 - 7/20/14
 
SHARE

PRINT THIS DATA

[ ← Previous Day ]
WEATHER ALMANAC - FEBRUARY 21, 2014
[ Next Day → ]
[ °C ]   °F
Weather ElementAverageHighLow
Temperature44.2 °F50 °F (1:00 pm)37.4 °F (5:50 am)
Dewpoint35.4 °F39.2 °F (12:20 am)32 °F (12:50 pm)
Humidity69.8 %93 % (12:20 am)37 % (3:00 pm)
Barometer29.63 in29.68 in (10:50 am)29.56 in (12:20 am)
Wind Speed13.9 mph24.2 mph (11:50 am)
Wind Gust34.5 mph (12:20 pm)
Weather ElementAverage
Visibility12.5 mi
Wind DirectionWSW (232.4 °)

Weather ElementTotal
Precipitation---
Heating Degree Days21.3 (Base 65)
Averaged from 70 records on February 21, 2014
WEATHER CONDITIONS BREAKOUT
WIND DIRECTION BREAKOUT
WEATHER BY HOUR - FEBRUARY 21, 2014
[ °C ]   °F
Local TimeTemperatureDewpointHumidityBarometerVisibilityWind DirectionWind SpeedGust SpeedPrecipitationEventsConditions
12:20 AM41.0 °F39.2 °F93 %29.56 in6.2 miWSW (240°)6.9 mphScattered Clouds
12:50 AM42.8 °F37.4 °F81 %29.56 in6.2 miSW (230°)9.2 mphScattered Clouds
1:00 AM41.0 °F37.0 °F80 %29.57 in18.0 miSW (230°)10.4 mphPartly Cloudy
1:20 AM41.0 °F37.4 °F87 %29.56 in6.2 miWSW (250°)5.8 mph
1:50 AM41.0 °F37.4 °F87 %29.56 in6.2 miSW (230°)8.1 mphPartly Cloudy
2:00 AM40.0 °F36.0 °F82 %29.59 in22.0 miSW (220°)6.9 mphScattered Clouds
2:20 AM41.0 °F37.4 °F87 %29.56 in6.2 miWSW (240°)8.1 mph
2:50 AM41.0 °F37.4 °F87 %29.56 inWSW (250°)6.9 mphClear
3:00 AM38.0 °F35.0 °F83 %29.59 in13.0 miWSW (240°)8.1 mphScattered Clouds
3:20 AM39.2 °F35.6 °F87 %29.59 inWSW (240°)8.1 mphClear
3:50 AM39.2 °F35.6 °F87 %29.59 inWest (260°)9.2 mphClear
4:20 AM39.2 °F35.6 °F87 %29.59 inWest (270°)6.9 mphClear
4:50 AM39.2 °F35.6 °F87 %29.59 inWSW (250°)9.2 mphClear
5:00 AM38.0 °F34.0 °F81 %29.60 in19.0 miWest (260°)8.1 mphScattered Clouds
5:20 AM39.2 °F35.6 °F87 %29.59 in6.2 miWSW (240°)8.1 mphPartly Cloudy
5:50 AM37.4 °F33.8 °F87 %29.62 inSW (230°)9.2 mphClear
6:00 AM38.0 °F34.0 °F78 %29.62 in22.0 miSW (230°)8.1 mph
6:20 AM37.4 °F33.8 °F87 %29.62 inSW (220°)9.2 mphClear
6:50 AM39.2 °F35.6 °F87 %29.62 inSW (220°)10.4 mphClear
7:00 AM38.0 °F34.0 °F78 %29.62 in25.0 miSW (220°)10.4 mph
7:20 AM39.2 °F35.6 °F87 %29.62 inSW (230°)11.5 mphClear
7:50 AM39.2 °F35.6 °F87 %29.62 inSW (230°)11.5 mphClear
8:00 AM39.0 °F34.0 °F75 %29.64 in25.0 miSW (230°)10.4 mph
8:20 AM39.2 °F35.6 °F87 %29.65 inSW (230°)10.4 mphClear
8:50 AM41.0 °F35.6 °F81 %29.65 inSW (230°)11.5 mphClear
9:00 AM42.0 °F35.0 °F68 %29.66 in22.0 miSW (230°)12.7 mph
9:20 AM42.8 °F35.6 °F76 %29.65 inWSW (240°)12.7 mphClear
9:50 AM44.6 °F37.4 °F76 %29.65 in6.2 miSW (230°)16.1 mphPartly Cloudy
10:00 AM45.0 °F36.0 °F61 %29.67 in22.0 miSW (230°)16.1 mph
10:20 AM46.4 °F35.6 °F66 %29.65 in6.2 miWSW (240°)13.8 mphPartly Cloudy
10:50 AM48.2 °F35.6 °F62 %29.68 in6.2 miSW (230°)18.4 mphPartly Cloudy
11:00 AM47.0 °F35.0 °F52 %29.68 in19.0 miSW (230°)16.1 mph
11:20 AM48.2 °F35.6 °F62 %29.68 in6.2 miWSW (250°)18.4 mphPartly Cloudy
11:50 AM48.2 °F33.8 °F58 %29.65 in6.2 miWSW (240°)24.2 mphScattered Clouds
12:00 PM49.0 °F34.0 °F44 %29.67 in19.0 miSW (230°)23.0 mphScattered Clouds
12:20 PM48.2 °F33.8 °F58 %29.65 in6.2 miSW (230°)21.9 mph34.5 mphScattered Clouds
12:50 PM48.2 °F32.0 °F54 %29.65 in6.2 miWSW (240°)19.6 mphScattered Clouds
1:00 PM50.0 °F33.0 °F40 %29.65 in25.0 miSW (230°)21.9 mphPartly Cloudy
1:20 PM50.0 °F33.8 °F54 %29.65 in6.2 miWSW (240°)20.7 mph33.4 mphPartly Cloudy
1:50 PM50.0 °F33.8 °F54 %29.65 in6.2 miWSW (250°)20.7 mphScattered Clouds
2:00 PM49.0 °F32.0 °F40 %29.65 in22.0 miSW (230°)21.9 mphPartly Cloudy
2:20 PM50.0 °F32.0 °F50 %29.62 in6.2 miWSW (240°)20.7 mphScattered Clouds
2:50 PM50.0 °F32.0 °F50 %29.62 in6.2 miWSW (240°)21.9 mphScattered Clouds
3:00 PM50.0 °F32.0 °F37 %29.64 in22.0 miWSW (240°)19.6 mphPartly Cloudy
3:20 PM50.0 °F33.8 °F54 %29.62 in6.2 miWSW (240°)18.4 mphPartly Cloudy
3:50 PM50.0 °F33.8 °F54 %29.62 in6.2 miSW (230°)17.3 mphScattered Clouds
4:00 PM50.0 °F32.0 °F38 %29.64 in22.0 miSW (230°)18.4 mphScattered Clouds
4:20 PM50.0 °F33.8 °F54 %29.62 in6.2 miSW (230°)20.7 mphScattered Clouds
4:50 PM46.4 °F37.4 °F71 %29.65 in6.2 miSW (230°)17.3 mphScattered Clouds
5:00 PM47.0 °F35.0 °F51 %29.65 in19.0 miSW (230°)19.6 mphRainRain
5:20 PM48.2 °F37.4 °F66 %29.65 in6.2 miWSW (240°)16.1 mphPartly Cloudy
5:50 PM46.4 °F35.6 °F66 %29.65 in6.2 miWSW (240°)13.8 mphScattered Clouds
6:00 PM46.0 °F35.0 °F56 %29.66 in19.0 miWSW (240°)13.8 mphRainRain
6:20 PM46.4 °F35.6 °F66 %29.65 in6.2 miWSW (250°)13.8 mphMostly Cloudy
6:50 PM46.4 °F35.6 °F66 %29.65 in6.2 miSW (230°)16.1 mphPartly Cloudy
7:00 PM46.0 °F34.0 °F52 %29.67 in22.0 miSW (220°)13.8 mphScattered Clouds
7:20 PM44.6 °F35.6 °F71 %29.65 inSW (220°)13.8 mphClear
7:50 PM44.6 °F35.6 °F71 %29.65 inSW (220°)15.0 mphClear
8:00 PM45.0 °F35.0 °F56 %29.65 in22.0 miSW (220°)15.0 mphPartly Cloudy
8:20 PM44.6 °F37.4 °F76 %29.65 inSW (230°)16.1 mphClear
8:50 PM44.6 °F37.4 °F76 %29.65 inSW (220°)15.0 mphClear
9:00 PM44.0 °F36.0 °F64 %29.66 in19.0 miSW (220°)16.1 mphMostly Cloudy
9:20 PM44.6 °F37.4 °F76 %29.65 inSW (220°)15.0 mphClear
9:50 PM44.6 °F37.4 °F76 %29.65 inSW (220°)11.5 mphClear
10:00 PM44.0 °F37.0 °F67 %29.65 in17.0 miSSW (210°)15.0 mphPartly Cloudy
10:20 PM44.6 °F37.4 °F76 %29.65 inSSW (210°)12.7 mphClear
10:50 PM44.6 °F39.2 °F81 %29.65 in6.2 miSSW (210°)9.2 mphPartly Cloudy
11:00 PM44.0 °F37.0 °F68 %29.65 in16.0 miSSW (210°)12.7 mphScattered Clouds
11:20 PM44.6 °F37.4 °F76 %29.65 in6.2 miSW (220°)11.5 mphPartly Cloudy
11:50 PM44.6 °F37.4 °F76 %29.65 in6.2 miSW (220°)12.7 mphPartly Cloudy
Hourly data recorded from EGLL, located miles away from London - Richmond Upon Thames, England







STORIES FROM OUR PARTNERS